THOR ABLESTAR DEB, 967

Orbit data source: Space-Track

THOR ABLESTAR DEB, 967 is space debris in LEO originally from a launch on Sun, 13 Dec 1964 UTC launched from the Air Force Western Test Range (AFWTR). Debris objects in space refer to the collection of defunct objects orbiting the Earth. Examples of debris include non-operational satellites, rocket bodies, and fragments generated from explosions, collisions, or faulty payload assembly.

Loading next visibility...
Identifier
967, 1964-083F
Orbit
LEO
Country
Flag of USUS
Related business
Manufacturer
Unknown
Mission
Spacecraft
Bus & Motor
Unknown
Mass
Unknown
Launch date (UTC)
1964-12-13 (61 years ago)
Launch vehicle
Unknown
Launch site
Air Force Western Test Range (AFWTR)
Object type
Payload
Rocket body
Debris
Shape & HBR
Unknown shape, 0.1 m
Radar Cross Section
Small (<0.1 m²)

Expand to show TLE details & history
Last TLE update: 1 day ago

TLE from 1 day ago
0 THOR ABLESTAR DEB
1 00967U 64083F   26015.39022789  .00000249  00000-0  28391-3 0  9998
2 00967  89.9499 174.5509 0022736 127.4291 261.3812 13.67356739 35101
Epoch: 2026-01-15T09:21Z
TLE epoch observation values (Epoch: 2026-01-15T09:21:55.689Z)
Latitude
28.59487°
Longitude
-80.74852°
Altitude
1,015.24 km
Speed
7.345 km/s
True Right ascension
11h 38m 18s
True Declination
28° 27' 20"
Sunlit
Object was in full shadow at epoch
Visualization orbit readout
Latitude
Unknown
Longitude
Unknown
Altitude
Unknown
Speed
Unknown
Apparent Right ascension
Unknown
Apparent Declination
Unknown
Sunlit
N/A
Visualization observer readout
Local Sidereal Time
10:03:59
Azimuth
Unknown
Elevation
Unknown
Doppler factor
Unknown
Orbital elements
Apogee altitude
1,022.889 km
Perigee altitude
989.312 km
Semi-major axis
7,384.237 km
Eccentricity
0.00227
Inclination
89.9499°
RAAN
174.5509°
Arg. of periapsis
127.4291°
True anomaly
261.12372°
Mean anomaly
261.3812°
Eccentric anomaly
261.25245°
Mean motion
3.42046 °/min
Orbital period
105.25 mins
BSTAR
0.00028391
Loading maneuver chart data...
Computing Atmospheric mass density...

Documentation

Showing up to 5 results
|